Darstellungsparameter: Aktuell verwendete Einstellungen:
Skalierung der Graphiken ... ?
xyx+y,   Skalierungsfaktor:      Skalierung: Modus: x, Faktor: 1
Darstellungszeitraum ... ?
Vom - - bis: - -   Zeitraum: 02.11.2020 - 02.11.2020
Min/Max/Avg-Anzeige ... ?
Zeige MMA aktuell
Zeige MMA Monat
Zeige MMA alles
Zeige --A aktuell
Zeige --A Monat
Zeige --A alles
Keine MMA-Anzeige
MMA:
Average (ber die Originaldaten)
MMA-Basis: 02.11.2020 - 02.11.2020
Quicknavigation für Darstellung... ?
Tage:      1T, 2T, 3T, 5T -1T -2T -3T -5T +1T +2T +3T +5T
Wochen: 1W, 2W, 3W -1W -2W -3W +1W +2W +3W
Monate: 1M, 3M, 6M -1M -3M -6M +1M +3M +6M
Jahre:    1J, 3J, 5J, 10J -1J -3J -5J -10J +1J +3J +5J +10J
Nutze für die Darstellung ... ?
Originaldaten oder Mittelwerte auf ...
Stundenbasis Tagesbasis Wochenbasis
Monatsbasis Jahresbasis      Datenbasis: Original-Daten
Darstellen als:
Statistik (Auto) Statistik J:M      Darstellung:
Zur Graphik,    zurück zur Übersicht aller Sensoren.
 
Tabellarische Datenbersicht: ?
 
Sensor: Nr:Datum:Temp:Abs-Feuchte:Windchill:Wind:
Aussen-T/F 1 02-11-2020 00:00:00 17.4 C 13.04 g/m*3 17.4 C 3.2 km/h
2 02-11-2020 00:05:00 17.4 C 13.04 g/m*3 17.4 C 4.8 km/h
3 02-11-2020 00:10:00 17.4 C 13.04 g/m*3 17.4 C 11.3 km/h
4 02-11-2020 00:15:00 17.4 C 13.04 g/m*3 17.4 C 3.2 km/h
5 02-11-2020 00:20:00 17.5 C 13.12 g/m*3 17.5 C 8.1 km/h
6 02-11-2020 00:25:00 17.6 C 13.2 g/m*3 17.6 C 8.1 km/h
7 02-11-2020 00:30:00 17.6 C 13.2 g/m*3 17.6 C 12.9 km/h
8 02-11-2020 00:35:00 17.7 C 13.28 g/m*3 17.7 C 12.9 km/h
9 02-11-2020 00:40:00 17.7 C 13.28 g/m*3 17.7 C 8.1 km/h
10 02-11-2020 00:45:00 17.7 C 13.28 g/m*3 17.7 C 8.1 km/h
11 02-11-2020 00:50:00 17.7 C 13.13 g/m*3 17.7 C 6.4 km/h
12 02-11-2020 00:55:00 17.7 C 13.28 g/m*3 17.7 C 4.8 km/h
13 02-11-2020 01:00:00 17.7 C 13.28 g/m*3 17.7 C 8.1 km/h
14 02-11-2020 01:05:00 17.8 C 13.36 g/m*3 17.8 C 6.4 km/h
15 02-11-2020 01:10:00 17.7 C 13.28 g/m*3 17.7 C 9.7 km/h
16 02-11-2020 01:15:00 17.8 C 13.36 g/m*3 17.8 C 14.5 km/h
17 02-11-2020 01:20:00 17.8 C 13.36 g/m*3 17.8 C 11.3 km/h
18 02-11-2020 01:25:00 17.8 C 13.2 g/m*3 17.8 C 9.7 km/h
19 02-11-2020 01:30:00 17.9 C 13.28 g/m*3 17.9 C 17.7 km/h
20 02-11-2020 01:35:00 18 C 13.36 g/m*3 18 C 17.7 km/h
21 02-11-2020 01:40:00 18.1 C 13.44 g/m*3 18.1 C 17.7 km/h
22 02-11-2020 01:45:00 18.1 C 13.44 g/m*3 18.1 C 16.1 km/h
23 02-11-2020 01:50:00 18.1 C 13.44 g/m*3 18.1 C 14.5 km/h
24 02-11-2020 01:55:00 18.1 C 13.44 g/m*3 18.1 C 14.5 km/h
25 02-11-2020 02:00:00 18.1 C 13.44 g/m*3 18.1 C 16.1 km/h
Sensor: Nr:Datum:Temp:Abs-Feuchte:Windchill:Wind:
Aussen-T/F 26 02-11-2020 02:05:00 18.1 C 13.44 g/m*3 18.1 C 12.9 km/h
27 02-11-2020 02:10:00 18.1 C 13.44 g/m*3 18.1 C 11.3 km/h
28 02-11-2020 02:15:00 18.2 C 13.52 g/m*3 18.2 C 16.1 km/h
29 02-11-2020 02:20:00 18.2 C 13.52 g/m*3 18.2 C 11.3 km/h
30 02-11-2020 02:25:00 18.2 C 13.52 g/m*3 18.2 C 16.1 km/h
31 02-11-2020 02:30:00 18.2 C 13.52 g/m*3 18.2 C 14.5 km/h
32 02-11-2020 02:35:00 18.2 C 13.37 g/m*3 18.2 C 14.5 km/h
33 02-11-2020 02:40:00 18.2 C 13.37 g/m*3 18.2 C 14.5 km/h
34 02-11-2020 02:45:00 18.2 C 13.37 g/m*3 18.2 C 14.5 km/h
35 02-11-2020 02:50:00 18.3 C 13.45 g/m*3 18.3 C 17.7 km/h
36 02-11-2020 02:55:00 18.3 C 13.45 g/m*3 18.3 C 17.7 km/h
37 02-11-2020 03:00:00 18.4 C 13.37 g/m*3 18.4 C 16.1 km/h
38 02-11-2020 03:05:00 18.4 C 13.37 g/m*3 18.4 C 11.3 km/h
39 02-11-2020 03:10:00 18.5 C 13.45 g/m*3 18.5 C 11.3 km/h
40 02-11-2020 03:15:00 18.5 C 13.29 g/m*3 18.5 C 16.1 km/h
41 02-11-2020 03:20:00 18.6 C 13.37 g/m*3 18.6 C 11.3 km/h
42 02-11-2020 03:25:00 18.6 C 13.37 g/m*3 18.6 C 17.7 km/h
43 02-11-2020 03:30:00 18.6 C 13.37 g/m*3 18.6 C 11.3 km/h
44 02-11-2020 03:35:00 18.7 C 13.45 g/m*3 18.7 C 8.1 km/h
45 02-11-2020 03:40:00 18.6 C 13.37 g/m*3 18.6 C 9.7 km/h
46 02-11-2020 03:45:00 18.6 C 13.37 g/m*3 18.6 C 14.5 km/h
47 02-11-2020 03:50:00 18.7 C 13.29 g/m*3 18.7 C 20.9 km/h
48 02-11-2020 03:55:00 18.7 C 13.29 g/m*3 18.7 C 9.7 km/h
49 02-11-2020 04:00:00 18.7 C 13.29 g/m*3 18.7 C 12.9 km/h
50 02-11-2020 04:05:00 18.8 C 13.37 g/m*3 18.8 C 9.7 km/h
Sensor: Nr:Datum:Temp:Abs-Feuchte:Windchill:Wind:
Aussen-T/F 51 02-11-2020 04:10:00 18.7 C 13.29 g/m*3 18.7 C 9.7 km/h
52 02-11-2020 04:15:00 18.7 C 13.45 g/m*3 18.7 C 11.3 km/h
53 02-11-2020 04:20:00 18.7 C 13.45 g/m*3 18.7 C 9.7 km/h
54 02-11-2020 04:25:00 18.7 C 13.45 g/m*3 18.7 C 12.9 km/h
55 02-11-2020 04:30:00 18.7 C 13.45 g/m*3 18.7 C 8.1 km/h
56 02-11-2020 04:35:00 18.7 C 13.45 g/m*3 18.7 C 11.3 km/h
57 02-11-2020 04:40:00 18.7 C 13.45 g/m*3 18.7 C 9.7 km/h
58 02-11-2020 04:45:00 18.7 C 13.45 g/m*3 18.7 C 6.4 km/h
59 02-11-2020 04:50:00 18.7 C 13.45 g/m*3 18.7 C 11.3 km/h
60 02-11-2020 04:55:00 18.6 C 13.53 g/m*3 18.6 C 6.4 km/h
61 02-11-2020 05:00:00 18.6 C 13.53 g/m*3 18.6 C 9.7 km/h
62 02-11-2020 05:05:00 18.6 C 13.69 g/m*3 18.6 C 9.7 km/h
63 02-11-2020 05:10:00 18.5 C 13.61 g/m*3 18.5 C 9.7 km/h
64 02-11-2020 05:15:00 18.4 C 13.53 g/m*3 18.4 C 16.1 km/h
65 02-11-2020 05:20:00 18.4 C 13.68 g/m*3 18.4 C 9.7 km/h
66 02-11-2020 05:25:00 18.3 C 13.6 g/m*3 18.3 C 9.7 km/h
67 02-11-2020 05:30:00 18.3 C 13.6 g/m*3 18.3 C 8.1 km/h
68 02-11-2020 05:35:00 18.3 C 13.6 g/m*3 18.3 C 20.9 km/h
69 02-11-2020 05:40:00 18.3 C 13.6 g/m*3 18.3 C 9.7 km/h
70 02-11-2020 05:45:00 18.3 C 13.6 g/m*3 18.3 C 6.4 km/h
71 02-11-2020 05:50:00 18.3 C 13.6 g/m*3 18.3 C 9.7 km/h
72 02-11-2020 05:55:00 18.3 C 13.6 g/m*3 18.3 C 11.3 km/h
73 02-11-2020 06:00:00 18.3 C 13.6 g/m*3 18.3 C 12.9 km/h
74 02-11-2020 06:05:00 18.3 C 13.6 g/m*3 18.3 C 11.3 km/h
75 02-11-2020 06:10:00 18.4 C 13.53 g/m*3 18.4 C 9.7 km/h
Sensor: Nr:Datum:Temp:Abs-Feuchte:Windchill:Wind:
Aussen-T/F 76 02-11-2020 06:15:00 18.4 C 13.53 g/m*3 18.4 C 12.9 km/h
77 02-11-2020 06:20:00 18.5 C 13.45 g/m*3 18.5 C 16.1 km/h
78 02-11-2020 06:25:00 18.6 C 13.53 g/m*3 18.6 C 17.7 km/h
79 02-11-2020 06:30:00 18.7 C 13.45 g/m*3 18.7 C 17.7 km/h
80 02-11-2020 06:35:00 18.8 C 13.37 g/m*3 18.8 C 12.9 km/h
81 02-11-2020 06:40:00 18.8 C 13.37 g/m*3 18.8 C 12.9 km/h
82 02-11-2020 06:45:00 18.8 C 13.37 g/m*3 18.8 C 12.9 km/h
83 02-11-2020 06:50:00 18.8 C 13.37 g/m*3 18.8 C 16.1 km/h
84 02-11-2020 06:55:00 18.9 C 13.28 g/m*3 18.9 C 17.7 km/h
85 02-11-2020 07:00:00 19 C 13.36 g/m*3 19 C 14.5 km/h
86 02-11-2020 07:05:00 19 C 13.36 g/m*3 19 C 20.9 km/h
87 02-11-2020 07:10:00 19 C 13.36 g/m*3 19 C 14.5 km/h
88 02-11-2020 07:15:00 19 C 13.2 g/m*3 19 C 19.3 km/h
89 02-11-2020 07:20:00 19 C 13.2 g/m*3 19 C 20.9 km/h
90 02-11-2020 07:25:00 19 C 13.2 g/m*3 19 C 17.7 km/h
91 02-11-2020 07:30:00 19 C 13.36 g/m*3 19 C 11.3 km/h
92 02-11-2020 07:35:00 18.9 C 13.12 g/m*3 18.9 C 16.1 km/h
93 02-11-2020 07:40:00 19 C 13.2 g/m*3 19 C 29 km/h
94 02-11-2020 07:45:00 19.1 C 13.28 g/m*3 19.1 C 19.3 km/h
95 02-11-2020 07:50:00 19.1 C 13.28 g/m*3 19.1 C 20.9 km/h
96 02-11-2020 07:55:00 19.1 C 13.11 g/m*3 19.1 C 22.5 km/h
97 02-11-2020 08:00:00 19.2 C 13.19 g/m*3 19.2 C 24.1 km/h
98 02-11-2020 08:05:00 19.2 C 13.19 g/m*3 19.2 C 19.3 km/h
99 02-11-2020 08:10:00 19.2 C 13.19 g/m*3 19.2 C 12.9 km/h
100 02-11-2020 08:15:00 19.2 C 13.19 g/m*3 19.2 C 14.5 km/h
Sensor: Nr:Datum:Temp:Abs-Feuchte:Windchill:Wind:
Aussen-T/F 101 02-11-2020 08:20:00 19.2 C 13.19 g/m*3 19.2 C 16.1 km/h
102 02-11-2020 08:25:00 19.2 C 13.19 g/m*3 19.2 C 20.9 km/h
103 02-11-2020 08:30:00 19.2 C 13.19 g/m*3 19.2 C 29 km/h
104 02-11-2020 08:35:00 19.2 C 13.03 g/m*3 19.2 C 25.7 km/h
105 02-11-2020 08:40:00 19.2 C 13.03 g/m*3 19.2 C 20.9 km/h
106 02-11-2020 08:45:00 19.2 C 13.03 g/m*3 19.2 C 16.1 km/h
107 02-11-2020 08:50:00 19.3 C 13.1 g/m*3 19.3 C 24.1 km/h
108 02-11-2020 08:55:00 19.3 C 13.1 g/m*3 19.3 C 19.3 km/h
109 02-11-2020 09:00:00 19.3 C 13.1 g/m*3 19.3 C 22.5 km/h
110 02-11-2020 09:05:00 19.4 C 13.18 g/m*3 19.4 C 20.9 km/h
111 02-11-2020 09:10:00 19.4 C 13.01 g/m*3 19.4 C 20.9 km/h
112 02-11-2020 09:15:00 19.4 C 13.01 g/m*3 19.4 C 20.9 km/h
113 02-11-2020 09:20:00 19.5 C 13.09 g/m*3 19.5 C 19.3 km/h
114 02-11-2020 09:25:00 19.5 C 13.09 g/m*3 19.5 C 16.1 km/h
115 02-11-2020 09:30:00 19.4 C 13.01 g/m*3 19.4 C 16.1 km/h
116 02-11-2020 09:35:00 19.5 C 13.09 g/m*3 19.5 C 24.1 km/h
117 02-11-2020 09:40:00 19.5 C 13.09 g/m*3 19.5 C 22.5 km/h
118 02-11-2020 09:45:00 19.5 C 12.92 g/m*3 19.5 C 20.9 km/h
119 02-11-2020 09:50:00 19.6 C 13 g/m*3 19.6 C 20.9 km/h
120 02-11-2020 09:55:00 19.6 C 13 g/m*3 19.6 C 27.4 km/h
121 02-11-2020 10:00:00 19.5 C 12.92 g/m*3 19.5 C 22.5 km/h
122 02-11-2020 10:05:00 19.5 C 12.92 g/m*3 19.5 C 17.7 km/h
123 02-11-2020 10:10:00 19.4 C 13.01 g/m*3 19.4 C 20.9 km/h
124 02-11-2020 10:15:00 19.4 C 13.01 g/m*3 19.4 C 20.9 km/h
125 02-11-2020 10:20:00 19.3 C 13.1 g/m*3 19.3 C 14.5 km/h
Sensor: Nr:Datum:Temp:Abs-Feuchte:Windchill:Wind:
Aussen-T/F 126 02-11-2020 10:25:00 19.3 C 13.1 g/m*3 19.3 C 11.3 km/h
127 02-11-2020 10:30:00 19.3 C 13.1 g/m*3 19.3 C 9.7 km/h
128 02-11-2020 10:35:00 19.3 C 13.1 g/m*3 19.3 C 12.9 km/h
129 02-11-2020 10:40:00 19.3 C 13.1 g/m*3 19.3 C 12.9 km/h
130 02-11-2020 10:45:00 19.3 C 13.1 g/m*3 19.3 C 8.1 km/h
131 02-11-2020 10:50:00 19.3 C 13.1 g/m*3 19.3 C 11.3 km/h
132 02-11-2020 10:55:00 19.3 C 13.1 g/m*3 19.3 C 11.3 km/h
133 02-11-2020 11:00:00 19.3 C 13.1 g/m*3 19.3 C 9.7 km/h
134 02-11-2020 11:05:00 19.4 C 13.01 g/m*3 19.4 C 8.1 km/h
135 02-11-2020 11:10:00 19.4 C 13.01 g/m*3 19.4 C 9.7 km/h
136 02-11-2020 11:15:00 19.6 C 13 g/m*3 19.6 C 9.7 km/h
137 02-11-2020 11:20:00 19.6 C 13 g/m*3 19.6 C 11.3 km/h
138 02-11-2020 11:25:00 19.6 C 13 g/m*3 19.6 C 16.1 km/h
139 02-11-2020 11:30:00 19.7 C 12.91 g/m*3 19.7 C 14.5 km/h
140 02-11-2020 11:35:00 19.7 C 13.08 g/m*3 19.7 C 12.9 km/h
141 02-11-2020 11:40:00 19.7 C 13.08 g/m*3 19.7 C 14.5 km/h
142 02-11-2020 11:45:00 19.7 C 13.08 g/m*3 19.7 C 12.9 km/h
143 02-11-2020 11:50:00 19.7 C 12.91 g/m*3 19.7 C 11.3 km/h
144 02-11-2020 11:55:00 19.7 C 13.08 g/m*3 19.7 C 11.3 km/h
145 02-11-2020 12:00:00 19.7 C 12.91 g/m*3 19.7 C 14.5 km/h
146 02-11-2020 12:05:00 19.8 C 12.98 g/m*3 19.8 C 17.7 km/h
147 02-11-2020 12:10:00 19.9 C 13.06 g/m*3 19.9 C 14.5 km/h
148 02-11-2020 12:15:00 20.1 C 13.04 g/m*3 20.1 C 14.5 km/h
149 02-11-2020 12:20:00 20.2 C 13.11 g/m*3 20.2 C 12.9 km/h
150 02-11-2020 12:25:00 20.2 C 12.94 g/m*3 20.2 C 11.3 km/h
Sensor: Nr:Datum:Temp:Abs-Feuchte:Windchill:Wind:
Aussen-T/F 151 02-11-2020 12:30:00 20.3 C 13.01 g/m*3 20.3 C 9.7 km/h
152 02-11-2020 12:35:00 20.5 C 13.17 g/m*3 20.5 C 16.1 km/h
153 02-11-2020 12:40:00 20.6 C 13.07 g/m*3 20.6 C 12.9 km/h
154 02-11-2020 12:45:00 20.6 C 13.07 g/m*3 20.6 C 19.3 km/h
155 02-11-2020 12:50:00 20.5 C 13.17 g/m*3 20.5 C 9.7 km/h
156 02-11-2020 12:55:00 20.4 C 13.09 g/m*3 20.4 C 11.3 km/h
157 02-11-2020 13:00:00 20.4 C 12.91 g/m*3 20.4 C 14.5 km/h
158 02-11-2020 13:05:00 20.4 C 12.91 g/m*3 20.4 C 14.5 km/h
159 02-11-2020 13:10:00 20.4 C 12.91 g/m*3 20.4 C 12.9 km/h
160 02-11-2020 13:15:00 20.4 C 12.91 g/m*3 20.4 C 17.7 km/h
161 02-11-2020 13:20:00 20.3 C 12.84 g/m*3 20.3 C 14.5 km/h
162 02-11-2020 13:25:00 20.4 C 12.91 g/m*3 20.4 C 24.1 km/h
163 02-11-2020 13:30:00 20.4 C 12.74 g/m*3 20.4 C 16.1 km/h
164 02-11-2020 13:35:00 20.4 C 12.91 g/m*3 20.4 C 11.3 km/h
165 02-11-2020 13:40:00 20.5 C 12.99 g/m*3 20.5 C 8.1 km/h
166 02-11-2020 13:45:00 20.6 C 13.07 g/m*3 20.6 C 14.5 km/h
167 02-11-2020 13:50:00 20.7 C 13.14 g/m*3 20.7 C 14.5 km/h
168 02-11-2020 13:55:00 20.7 C 12.96 g/m*3 20.7 C 16.1 km/h
169 02-11-2020 14:00:00 20.7 C 12.96 g/m*3 20.7 C 14.5 km/h
170 02-11-2020 14:05:00 20.8 C 13.04 g/m*3 20.8 C 20.9 km/h
171 02-11-2020 14:10:00 20.7 C 12.78 g/m*3 20.7 C 12.9 km/h
172 02-11-2020 14:15:00 20.7 C 12.78 g/m*3 20.7 C 14.5 km/h
173 02-11-2020 14:20:00 20.8 C 12.86 g/m*3 20.8 C 17.7 km/h
174 02-11-2020 14:25:00 20.7 C 12.78 g/m*3 20.7 C 17.7 km/h
175 02-11-2020 14:30:00 20.7 C 12.96 g/m*3 20.7 C 14.5 km/h
Sensor: Nr:Datum:Temp:Abs-Feuchte:Windchill:Wind:
Aussen-T/F 176 02-11-2020 14:35:00 20.7 C 12.78 g/m*3 20.7 C 20.9 km/h
177 02-11-2020 14:40:00 20.7 C 12.96 g/m*3 20.7 C 16.1 km/h
178 02-11-2020 14:45:00 20.6 C 12.89 g/m*3 20.6 C 14.5 km/h
179 02-11-2020 14:50:00 20.6 C 12.89 g/m*3 20.6 C 16.1 km/h
180 02-11-2020 14:55:00 20.7 C 12.96 g/m*3 20.7 C 11.3 km/h
181 02-11-2020 15:00:00 20.7 C 12.96 g/m*3 20.7 C 16.1 km/h
182 02-11-2020 15:05:00 20.7 C 12.96 g/m*3 20.7 C 12.9 km/h
183 02-11-2020 15:10:00 20.7 C 12.78 g/m*3 20.7 C 17.7 km/h
184 02-11-2020 15:15:00 20.8 C 12.86 g/m*3 20.8 C 19.3 km/h
185 02-11-2020 15:20:00 20.9 C 12.93 g/m*3 20.9 C 16.1 km/h
186 02-11-2020 15:25:00 21 C 12.82 g/m*3 21 C 16.1 km/h
187 02-11-2020 15:30:00 21.1 C 12.9 g/m*3 21.1 C 17.7 km/h
188 02-11-2020 15:35:00 21.1 C 12.9 g/m*3 21.1 C 17.7 km/h
189 02-11-2020 15:40:00 21.1 C 12.9 g/m*3 21.1 C 14.5 km/h
190 02-11-2020 15:45:00 21.1 C 12.71 g/m*3 21.1 C 17.7 km/h
191 02-11-2020 15:50:00 21 C 12.82 g/m*3 21 C 11.3 km/h
192 02-11-2020 15:55:00 21 C 12.82 g/m*3 21 C 14.5 km/h
193 02-11-2020 16:00:00 20.9 C 12.75 g/m*3 20.9 C 22.5 km/h
194 02-11-2020 16:05:00 20.9 C 12.75 g/m*3 20.9 C 14.5 km/h
195 02-11-2020 16:10:00 20.9 C 12.57 g/m*3 20.9 C 20.9 km/h
196 02-11-2020 16:15:00 20.9 C 12.75 g/m*3 20.9 C 12.9 km/h
197 02-11-2020 16:20:00 20.9 C 12.75 g/m*3 20.9 C 14.5 km/h
198 02-11-2020 16:25:00 20.8 C 12.67 g/m*3 20.8 C 22.5 km/h
199 02-11-2020 16:30:00 20.8 C 12.67 g/m*3 20.8 C 19.3 km/h
200 02-11-2020 16:35:00 20.7 C 12.78 g/m*3 20.7 C 19.3 km/h
Sensor: Nr:Datum:Temp:Abs-Feuchte:Windchill:Wind:
Aussen-T/F 201 02-11-2020 16:40:00 20.6 C 12.71 g/m*3 20.6 C 11.3 km/h
202 02-11-2020 16:45:00 20.4 C 12.74 g/m*3 20.4 C 22.5 km/h
203 02-11-2020 16:50:00 20.3 C 12.66 g/m*3 20.3 C 17.7 km/h
204 02-11-2020 16:55:00 20.2 C 12.59 g/m*3 20.2 C 11.3 km/h
205 02-11-2020 17:00:00 20.1 C 12.69 g/m*3 20.1 C 19.3 km/h
206 02-11-2020 17:05:00 20.1 C 12.86 g/m*3 20.1 C 4.8 km/h
207 02-11-2020 17:10:00 19.9 C 12.71 g/m*3 19.9 C 16.1 km/h
208 02-11-2020 17:15:00 19.9 C 12.71 g/m*3 19.9 C 12.9 km/h
209 02-11-2020 17:20:00 19.8 C 12.64 g/m*3 19.8 C 14.5 km/h
210 02-11-2020 17:25:00 19.8 C 12.64 g/m*3 19.8 C 16.1 km/h
211 02-11-2020 17:30:00 19.8 C 12.64 g/m*3 19.8 C 11.3 km/h
212 02-11-2020 17:35:00 19.8 C 12.81 g/m*3 19.8 C 11.3 km/h
213 02-11-2020 17:40:00 19.7 C 12.74 g/m*3 19.7 C 14.5 km/h
214 02-11-2020 17:45:00 19.5 C 12.59 g/m*3 19.5 C 6.4 km/h
215 02-11-2020 17:50:00 19.4 C 12.68 g/m*3 19.4 C 9.7 km/h
216 02-11-2020 17:55:00 19.2 C 12.53 g/m*3 19.2 C 12.9 km/h
217 02-11-2020 18:00:00 19.2 C 12.7 g/m*3 19.2 C 20.9 km/h
218 02-11-2020 18:05:00 19.3 C 12.61 g/m*3 19.3 C 16.1 km/h
219 02-11-2020 18:10:00 19.5 C 12.75 g/m*3 19.5 C 12.9 km/h
220 02-11-2020 18:15:00 19.7 C 12.74 g/m*3 19.7 C 16.1 km/h
221 02-11-2020 18:20:00 19.8 C 12.81 g/m*3 19.8 C 9.7 km/h
222 02-11-2020 18:25:00 19.8 C 12.81 g/m*3 19.8 C 14.5 km/h
223 02-11-2020 18:30:00 19.8 C 12.98 g/m*3 19.8 C 11.3 km/h
224 02-11-2020 18:35:00 19.8 C 12.98 g/m*3 19.8 C 6.4 km/h
225 02-11-2020 18:40:00 19.7 C 12.91 g/m*3 19.7 C 9.7 km/h
Sensor: Nr:Datum:Temp:Abs-Feuchte:Windchill:Wind:
Aussen-T/F 226 02-11-2020 18:45:00 19.7 C 12.91 g/m*3 19.7 C 6.4 km/h
227 02-11-2020 18:50:00 19.6 C 12.83 g/m*3 19.6 C 11.3 km/h
228 02-11-2020 18:55:00 19.6 C 12.83 g/m*3 19.6 C 12.9 km/h
229 02-11-2020 19:00:00 19.5 C 12.75 g/m*3 19.5 C 9.7 km/h
230 02-11-2020 19:05:00 19.5 C 12.75 g/m*3 19.5 C 8.1 km/h
231 02-11-2020 19:10:00 19.5 C 12.75 g/m*3 19.5 C 14.5 km/h
232 02-11-2020 19:15:00 19.5 C 12.75 g/m*3 19.5 C 14.5 km/h
233 02-11-2020 19:20:00 19.5 C 12.75 g/m*3 19.5 C 12.9 km/h
234 02-11-2020 19:25:00 19.6 C 12.83 g/m*3 19.6 C 12.9 km/h
235 02-11-2020 19:30:00 19.7 C 12.91 g/m*3 19.7 C 11.3 km/h
236 02-11-2020 19:35:00 19.8 C 12.98 g/m*3 19.8 C 17.7 km/h
237 02-11-2020 19:40:00 19.9 C 12.89 g/m*3 19.9 C 30.6 km/h
238 02-11-2020 19:45:00 20.1 C 13.21 g/m*3 20.1 C 30.6 km/h
239 02-11-2020 19:50:00 20 C 13.13 g/m*3 20 C 24.1 km/h
240 02-11-2020 19:55:00 19.9 C 13.23 g/m*3 19.9 C 16.1 km/h
241 02-11-2020 20:00:00 19.8 C 13.15 g/m*3 19.8 C 12.9 km/h
242 02-11-2020 20:05:00 19.8 C 13.32 g/m*3 19.8 C 12.9 km/h
243 02-11-2020 20:10:00 19.7 C 13.25 g/m*3 19.7 C 6.4 km/h
244 02-11-2020 20:15:00 19.6 C 13.17 g/m*3 19.6 C 9.7 km/h
245 02-11-2020 20:20:00 19.6 C 13.17 g/m*3 19.6 C 9.7 km/h
246 02-11-2020 20:25:00 19.6 C 13.34 g/m*3 19.6 C 9.7 km/h
247 02-11-2020 20:30:00 19.6 C 13.34 g/m*3 19.6 C 12.9 km/h
248 02-11-2020 20:35:00 19.6 C 13.34 g/m*3 19.6 C 1.6 km/h
249 02-11-2020 20:40:00 19.3 C 12.94 g/m*3 19.3 C 27.4 km/h
250 02-11-2020 20:45:00 17.6 C 11.7 g/m*3 17.6 C 25.7 km/h
Sensor: Nr:Datum:Temp:Abs-Feuchte:Windchill:Wind:
Aussen-T/F 251 02-11-2020 20:50:00 16.3 C 11.65 g/m*3 16.3 C 14.5 km/h
252 02-11-2020 20:55:00 15.5 C 11.37 g/m*3 15.5 C 19.3 km/h
253 02-11-2020 21:00:00 15.1 C 11.35 g/m*3 15.1 C 11.3 km/h
254 02-11-2020 21:05:00 14.8 C 11.27 g/m*3 14.8 C 0 km/h
255 02-11-2020 21:10:00 14.6 C 11.26 g/m*3 14.6 C 6.4 km/h
256 02-11-2020 21:15:00 14.4 C 11.13 g/m*3 14.4 C 8.1 km/h
257 02-11-2020 21:20:00 14.3 C 11.18 g/m*3 14.3 C 3.2 km/h
258 02-11-2020 21:25:00 14.2 C 11.11 g/m*3 14.2 C 11.3 km/h
259 02-11-2020 21:30:00 14.1 C 11.17 g/m*3 14.1 C 8.1 km/h
260 02-11-2020 21:35:00 14.1 C 11.17 g/m*3 14.1 C 1.6 km/h
261 02-11-2020 21:40:00 14 C 11.1 g/m*3 14 C 1.6 km/h
262 02-11-2020 21:45:00 13.9 C 11.03 g/m*3 13.9 C 0 km/h
263 02-11-2020 21:50:00 13.9 C 11.15 g/m*3 13.9 C 0 km/h
264 02-11-2020 21:55:00 13.9 C 11.15 g/m*3 13.9 C 3.2 km/h
265 02-11-2020 22:00:00 13.9 C 11.15 g/m*3 13.9 C 1.6 km/h
266 02-11-2020 22:05:00 13.8 C 11.08 g/m*3 13.8 C 3.2 km/h
267 02-11-2020 22:10:00 13.7 C 10.89 g/m*3 13.7 C 4.8 km/h
268 02-11-2020 22:15:00 13.4 C 10.69 g/m*3 13.4 C 8.1 km/h
269 02-11-2020 22:20:00 13.2 C 10.56 g/m*3 13.2 C 8.1 km/h
270 02-11-2020 22:25:00 13 C 10.43 g/m*3 13 C 8.1 km/h
271 02-11-2020 22:30:00 12.8 C 10.3 g/m*3 12.8 C 6.4 km/h
272 02-11-2020 22:35:00 12.7 C 10.24 g/m*3 12.7 C 6.4 km/h
273 02-11-2020 22:40:00 12.6 C 10.29 g/m*3 12.6 C 6.4 km/h
274 02-11-2020 22:45:00 12.5 C 10.22 g/m*3 12.5 C 4.8 km/h
275 02-11-2020 22:50:00 12.4 C 10.16 g/m*3 12.4 C 4.8 km/h
Sensor: Nr:Datum:Temp:Abs-Feuchte:Windchill:Wind:
Aussen-T/F 276 02-11-2020 22:55:00 12.2 C 9.93 g/m*3 12.2 C 8.1 km/h
277 02-11-2020 23:00:00 12.1 C 9.87 g/m*3 12.1 C 4.8 km/h
278 02-11-2020 23:05:00 12.1 C 9.87 g/m*3 12.1 C 4.8 km/h
279 02-11-2020 23:10:00 12 C 9.91 g/m*3 12 C 4.8 km/h
280 02-11-2020 23:15:00 12 C 9.91 g/m*3 12 C 9.7 km/h
281 02-11-2020 23:20:00 11.9 C 9.85 g/m*3 11.9 C 4.8 km/h
282 02-11-2020 23:25:00 11.9 C 9.85 g/m*3 11.9 C 4.8 km/h
283 02-11-2020 23:30:00 11.9 C 9.85 g/m*3 11.9 C 3.2 km/h
284 02-11-2020 23:35:00 11.9 C 9.96 g/m*3 11.9 C 4.8 km/h
285 02-11-2020 23:40:00 11.9 C 9.96 g/m*3 11.9 C 3.2 km/h
286 02-11-2020 23:45:00 11.9 C 9.96 g/m*3 11.9 C 3.2 km/h
287 02-11-2020 23:50:00 11.9 C 9.96 g/m*3 11.9 C 4.8 km/h
288 02-11-2020 23:55:00 11.8 C 9.79 g/m*3 11.8 C 4.8 km/h

Legende:
   Min
   Max


Maximal/Minimal-Werte vom 02.11.2020 - 02.11.2020

Sensor Min Max Avg
Temp
(Aussen-T/F)
11.8 °C
02-11-2020  23:55:00
21.1 °C
02-11-2020  15:30:00
18.53 °C
Abs-Feuchte
(Aussen-T/F)
9.79 g/m*3
02-11-2020  23:55:00
13.69 g/m*3
02-11-2020  05:05:00
12.73 g/m*3
Windchill
(Aussen-T/F)
11.8 C
02-11-2020  23:55:00
21.1 C
02-11-2020  15:30:00
18.47 C

Die Daten stammen von einer Davis Vantage Pro 2 Wetter-Station und werden unter Linux mit der Software wview2wettercgi und aufbereitet. Alle Angaben erfolgen ohne Gewähr für ihre Vollständigkeit oder Richtigkeit.
Kontakt: Rainer Krienke krienke@uni-koblenz.de . Meine Webseiten an der Uni Koblenz oder privat.
Version: $Revision: 0.78 $